Location: Hylvaty SDH
(49.9612°N, 16.4057°E)
Time: 00:48:30
(UTC+01:00)

Courier 1B - Visible Passes

Search period start: 26 January 2020 00:00
Search period end: 05 February 2020 00:00
Orbit: 962 x 1209 km, 28.3° (Epoch: 25 January)

Date Brightness Start Highest point End Pass type
(mag) Time Alt. Az. Time Alt. Az. Time Alt. Az.
26 Jan 10.0 03:41:06 11° SSE 03:41:06 11° SSE 03:42:03 10° SSE visible
26 Jan 9.9 05:29:19 10° SSW 05:31:54 12° S 05:34:32 10° SSE visible
27 Jan 9.8 04:37:35 12° S 04:38:25 12° S 04:41:20 10° SSE visible
28 Jan 10.0 03:47:11 11° SSE 03:47:11 11° SSE 03:47:49 10° SSE visible
29 Jan 9.9 04:43:41 10° SSW 04:44:04 10° SSW 04:45:13 10° S visible
